Location: Marcé
(47.5801°N, 0.3280°W)
Time: 04:09:32
(UTC+02:00)

RAPIDEYE 2 - Pass Details

Date: 01 July 2022
Orbit: 570 x 584 km, 97.6° (Epoch: 14 August)

Event Time Altitude Azimuth Distance (km) Brightness Sun altitude
Exits shadow 22:49:10 - 165° (SSE) 2,283 ? -6.8°
Reaches altitude 10° 22:50:10 10° 165° (SSE) 1,868 ? -6.9°
Maximum altitude 22:54:13 89° 84° (E) 577 ? -7.4°
Drops below altitude 10° 22:58:18 10° 347° (NNW) 1,884 ? -7.8°
Sets 23:00:28 0° 348° (NNW) 2,788 ? -8.1°
